カタログに戻る

BLOCK DM-SL R/B

運用中HEO
NORAD 25938·ROCKET BODY· XX

打ち上げ Oct 10, 1999 から Sea Launch Platform

Loading…

次のパス (今後24時間)

TLE

最新Source: Space-Track

元期: Sep 14, 2026, 09:17 UTC

1 25938U 99056B   26257.38733828 -.00000108  00000-0  00000-0 0  9990
2 25938   0.9118 348.9708 6465538 124.9086 324.1396  2.12161840208704

AllMySatでBLOCK DM-SL R/Bをリアルタイム追跡

Download on the App Store